Regional Weather Roundup
Issued by NWS

Home | Current Version | Previous Version | Text Only | Print | Product List | Glossary Off
Versions: 1 2 3 4 5 6 7 8 9 10 11 12 13 14 15 16 17 18 19 20 21 22 23 24 25 26 27 28 29 30 31 32 33 34 35 36 37 38 39 40 41 42 43 44 45 46 47 48 49 50

000
ASUS43 KOAX 190902
RWRNE

WEATHER ROUNDUP FOR NEBRASKA
NATIONAL WEATHER SERVICE OMAHA NE
300 AM CST SUN FEB 19 2017

NOTES: SATELLITE DATA IS BEING USED TO AUGMENT CLOUD COVER ABOVE
       12000 FEET.
       "FAIR" INDICATES FEW OR NO CLOUDS BELOW 12,000 FEET WITH NO
       SIGNIFICANT WEATHER AND/OR OBSTRUCTIONS TO VISIBILITY.

  * THESE STATIONS DO NOT REPORT WEATHER SUCH AS RAIN...SNOW OR FOG.

NEZ001>004-019>022-054>056-191000-
NEBRASKA PANHANDLE

CITY           SKY/WX    TMP DP  RH WIND       PRES   REMARKS
SCOTTSBLUFF    CLOUDY    40  30  67 SE12      29.63F WCI  33
ALLIANCE       CLOUDY    39  32  76 SE7       29.63F WCI  34
CHADRON        CLOUDY    46  31  55 S13       29.60F
KIMBALL        CLOUDY    41  27  58 W5        29.64F
SIDNEY         CLOUDY    45  26  47 S12       29.65S
$$

NEZ057>060-069>072-079>082-191000-
SOUTHWEST NEBRASKA

CITY           SKY/WX    TMP DP  RH WIND       PRES   REMARKS
NORTH PLATTE   PTCLDY    46  34  62 SE6       29.73S
IMPERIAL       CLOUDY    48  31  51 SE14      29.71S
LEXINGTON      CLOUDY    47  37  70 S14       29.77R
MCCOOK         CLOUDY    50  37  61 SW6       29.76R
OGALLALA       PTCLDY    45  34  64 E3        29.69S
$$

NEZ005>010-023>029-035>040-094-191000-
NORTH CENTRAL NEBRASKA

CITY           SKY/WX    TMP DP  RH WIND       PRES   REMARKS
VALENTINE      MOCLDY    44  33  65 S3        29.69S
AINSWORTH      MOCLDY    44  35  71 S10       29.71R
BROKEN BOW     CLOUDY    35  30  82 CALM      29.75R
O`NEILL        CLEAR     42  33  71 SE8       29.75S
ORD            PTCLDY    38  31  76 SE3       29.76S
THEDFORD       PTCLDY    39  33  81 CALM      29.72F
$$

NEZ041-046>049-061>064-073>077-083>087-191000-
SOUTH CENTRAL NEBRASKA

CITY           SKY/WX    TMP DP  RH WIND       PRES   REMARKS
GRAND ISLAND   PTCLDY    47  41  80 S9        29.80S
AURORA         PTCLDY    42  36  80 S7        29.81R
HASTINGS       PTCLDY    49  41  74 S10       29.82R
HEBRON         CLOUDY    50  45  82 S8        29.84R
HOLDREGE       PTCLDY    45  39  78 S13       29.79R
KEARNEY *      MOCLDY    43  36  75 S5        29.80S
YORK           PTCLDY    43  37  81 S8        29.83R
$$

NEZ011>018-030>034-042>045-191000-
NORTHEAST NEBRASKA

CITY           SKY/WX    TMP DP  RH WIND       PRES   REMARKS
NORFOLK        CLEAR     45  34  65 SE12      29.78S
ALBION         MOCLDY    42  32  69 SE6       29.79S
BLAIR          PTCLDY    48  33  57 SE7       29.84R
FREMONT        PTCLDY    40  33  77 CALM      29.84R
TEKAMAH        PTCLDY    36  32  85 S5        29.84S WCI  32
WAYNE          CLOUDY    43  34  70 S9        29.80F
$$

NEZ050>053-065>068-078-088>093-191000-
SOUTHEAST NEBRASKA

CITY           SKY/WX    TMP DP  RH WIND       PRES   REMARKS
LINCOLN        CLOUDY    38  30  73 CALM      29.85R
OMAHA EPPLEY   MOCLDY    43  34  70 S3        29.84R
BEATRICE       MOCLDY    46  40  78 S3        29.86R
FALLS CITY     CLEAR     50  45  83 SW9       29.85F
NEBRASKA CITY  CLOUDY    45  33  63 S8        29.85S
PLATTSMOUTH    PTCLDY    46  32  57 SE6       29.85R
$$

NEZ044-045-051>053-067-191000-
OMAHA AREA

CITY           SKY/WX    TMP DP  RH WIND       PRES   REMARKS
OMAHA EPPLEY   MOCLDY    43  34  70 S3        29.84R
BLAIR          PTCLDY    48  33  57 SE7       29.84R
FREMONT        PTCLDY    40  33  77 CALM      29.84R
MILLARD        PTCLDY    42  34  75 CALM      29.84S
OFFUTT AFB     CLOUDY    36  35  96 CALM      29.84R
PLATTSMOUTH    PTCLDY    46  32  57 SE6       29.85R
WAHOO          FAIR      39  32  75 SE3       29.83S
$$




USA.gov is the U.S. government's official web portal to all federal, state and local government web resources and services.